Wind_Speed
12 12 13 13 14 15 15 16 16 16 16 16 16 16 17 17 17 17 18 18 19 19 20 22 24 26 29 31 34 37 39 41 42 42 43 43 42 42 42 41 39 38 37 36 35 33 31 29 27 25 23 21 19 19 19 18 16 16 15 13 10 6 4 2 2 3 4 5 7 7 7 9 12 14 17 20 22 25 28 29 29 31 32 34 35 34 32 31
13 13 14 14 15 15 16 17 18 18 18 18 18 18 18 18 19 19 19 19 20 20 21 21 23 25 27 29 32 35 38 40 42 42 43 43 43 43 43 42 40 39 38 38 37 35 33 31 29 27 25 23 21 20 20 19 18 16 15 15 11 7 6 3 1 1 3 5 5 5 5 8 11 13 15 18 21 23 26 28 28 29 31 33 35 34 33 31
14 15 15 15 16 16 17 17 18 19 20 20 20 20 20 20 20 21 21 21 21 21 21 22 22 23 25 27 29 32 36 39 41 42 43 44 44 44 44 43 42 40 40 39 38 37 35 33 31 29 27 26 24 22 21 20 19 17 16 17 13 8 6 3 1 0 2 3 3 3 3 6 10 11 13 17 20 22 24 26 27 28 30 32 33 34 34 32
15 16 16 17 17 17 17 18 18 19 20 21 21 21 22 22 22 22 23 23 23 23 22 23 23 23 24 26 28 30 33 37 40 42 43 44 44 44 45 44 43 42 41 41 40 39 38 36 33 32 30 28 26 24 22 21 20 19 18 18 15 10 7 4 2 2 1 2 2 2 3 5 8 9 11 14 18 20 22 25 26 26 29 31 32 33 34 33
17 17 18 18 18 19 19 19 19 19 20 21 22 22 23 23 23 24 24 24 24 24 24 24 24 24 24 25 26 29 31 35 38 41 42 43 44 45 45 45 44 44 43 42 41 40 39 38 36 34 32 30 28 27 24 22 21 21 20 18 16 13 9 7 4 3 3 0 1 1 3 3 5 8 9 11 16 18 20 23 24 25 27 30 31 32 33 33
20 20 20 20 21 20 20 20 20 20 20 21 22 23 23 24 24 25 25 26 26 26 26 26 25 25 25 25 26 28 30 33 36 39 41 42 44 45 45 45 45 45 44 43 43 42 41 40 38 37 35 33 31 29 26 24 23 22 21 19 17 14 11 8 7 4 3 1 3 1 3 3 3 6 7 9 13 16 18 20 22 23 24 28 30 31 32 33
22 22 22 22 22 22 22 21 20 20 20 21 21 23 24 24 25 25 26 26 27 27 27 27 27 26 26 26 27 28 29 31 33 36 39 41 43 44 45 45 46 45 45 45 44 43 43 42 41 39 37 35 33 31 29 27 25 23 22 20 18 16 13 10 9 6 3 2 4 4 1 2 3 4 5 7 11 14 16 18 20 22 23 25 28 29 31 32
23 24 25 25 25 24 23 22 21 21 21 21 21 22 23 24 25 26 27 27 28 29 29 29 28 28 28 28 28 28 29 30 31 33 36 38 41 43 44 45 46 45 45 46 45 45 44 44 43 41 40 38 36 34 31 29 27 24 23 22 19 18 15 11 10 8 6 5 5 6 3 1 2 3 4 5 9 12 13 16 18 20 21 23 25 28 29 31
26 26 27 27 27 26 25 23 22 21 21 21 21 21 22 24 25 26 27 28 28 29 30 30 30 30 30 29 29 29 29 29 30 32 34 36 39 42 44 45 46 46 46 46 46 46 46 46 45 43 42 40 38 36 34 31 29 26 24 23 21 20 18 13 11 11 10 9 8 8 8 4 2 2 3 4 7 10 11 13 16 18 20 21 23 26 28 29
28 29 29 29 28 27 26 24 23 22 21 21 21 21 22 23 25 26 27 28 29 30 30 31 31 31 31 31 31 31 31 30 30 31 33 35 37 40 42 44 46 46 46 46 47 48 48 47 46 45 43 42 41 39 36 34 31 28 26 24 22 21 20 16 15 14 12 12 11 10 10 8 4 2 3 4 5 8 10 11 13 16 18 19 21 23 26 28
31 31 30 29 28 27 25 25 24 23 22 21 21 21 22 23 24 26 27 28 29 30 31 32 32 33 33 33 32 33 33 32 31 32 32 34 36 39 41 43 45 46 46 46 48 50 49 48 47 46 45 44 43 41 38 36 33 31 28 25 24 23 22 20 20 17 15 14 12 12 12 11 7 4 3 4 4 6 8 9 11 14 16 18 19 20 23 26
32 32 31 29 28 26 25 25 24 23 23 22 21 21 22 23 24 25 27 28 29 30 31 32 33 34 34 34 34 35 34 34 33 33 33 34 35 37 39 42 43 45 45 45 48 50 49 49 48 48 47 46 45 43 40 38 35 32 30 27 26 25 24 24 23 22 20 17 14 13 13 12 10 6 4 5 4 5 7 7 9 11 14 16 17 18 20 23
33 32 31 29 28 26 25 24 24 24 23 22 22 21 21 22 24 25 26 28 29 30 31 32 33 34 35 35 36 36 36 36 35 35 34 34 35 36 37 40 42 43 43 44 48 50 50 50 49 49 49 48 46 44 42 40 37 34 32 29 28 27 26 26 26 25 24 19 16 15 14 14 12 9 6 5 4 4 6 6 7 10 12 14 15 16 17 21
34 33 32 30 29 28 26 25 24 24 24 23 22 22 22 22 23 25 26 27 29 30 31 32 33 34 35 36 37 37 37 37 37 37 36 36 36 36 36 38 40 42 42 43 47 51 51 50 50 50 50 49 48 46 43 41 39 37 33 31 31 29 27 27 28 28 27 22 18 18 17 16 15 12 9 6 4 4 5 5 6 8 11 11 13 14 15 17
35 34 32 31 30 29 28 26 25 25 24 24 23 23 22 22 23 24 26 27 29 30 31 32 33 34 35 36 37 38 38 38 38 38 38 38 38 37 37 38 39 41 41 41 46 50 51 51 50 51 51 51 49 47 45 43 42 40 37 35 34 32 29 27 28 28 27 25 22 21 20 19 18 15 12 9 6 5 5 5 6 7 9 10 10 12 12 14
36 35 33 32 31 30 29 28 26 26 25 24 24 23 23 22 23 24 25 27 28 30 31 32 33 34 35 36 36 37 38 39 39 40 40 40 40 39 39 39 39 40 41 41 45 49 51 52 51 51 51 51 51 49 46 45 44 42 41 38 35 34 31 29 29 28 26 26 25 23 23 21 20 18 15 12 8 6 5 5 6 7 8 10 9 9 10 12
36 35 35 34 32 31 30 29 28 27 26 25 24 24 23 23 22 23 24 26 28 30 31 32 34 34 35 36 37 37 38 39 40 41 41 41 42 42 41 41 41 41 41 42 44 48 50 52 52 51 51 52 51 50 48 46 46 45 44 41 37 36 33 30 30 30 28 26 26 25 24 23 22 21 19 16 11 7 6 6 6 7 8 9 8 7 8 10
37 36 36 35 33 32 31 29 28 27 27 26 25 24 24 23 22 22 23 25 26 28 30 32 33 34 36 37 37 38 39 39 40 41 42 42 43 43 44 43 43 42 42 43 44 46 49 51 52 51 52 52 52 51 50 48 48 48 47 44 40 38 36 33 32 33 31 27 27 28 26 25 25 23 21 19 15 9 7 7 7 7 7 7 9 7 6 8
38 38 37 36 34 32 31 30 29 28 27 26 26 25 24 23 23 22 23 24 25 27 28 30 32 33 35 37 38 38 39 40 41 41 42 43 44 44 45 45 45 44 44 44 45 46 48 50 51 51 52 52 52 52 52 51 51 50 49 46 43 41 42 39 34 35 33 28 28 30 29 28 28 26 22 20 18 13 10 10 9 7 6 6 8 8 5 6
39 39 37 36 35 33 31 30 29 28 27 27 26 25 24 23 23 22 22 23 24 25 26 28 30 32 34 35 37 38 39 40 41 42 43 43 44 45 45 46 46 46 46 46 47 48 48 49 50 51 51 52 53 54 54 54 53 52 49 47 46 44 44 41 37 36 36 30 29 31 32 31 30 28 23 20 20 17 14 13 12 9 7 5 7 9 6 5
40 39 37 36 35 33 31 30 29 28 27 27 26 26 25 24 23 22 22 22 22 23 24 26 27 29 31 33 35 37 38 40 41 42 43 44 45 45 46 47 47 47 48 49 50 49 48 49 49 50 51 51 53 55 56 56 55 53 50 48 49 47 44 41 38 37 37 31 28 30 33 33 33 30 24 21 22 20 17 15 14 12 9 6 5 9 8 5
40 39 38 36 34 33 31 29 28 27 27 27 26 26 25 24 23 22 21 22 22 22 23 24 25 27 29 30 33 35 37 38 40 41 42 44 45 46 47 47 48 49 50 51 52 51 50 48 48 49 50 51 53 56 57 57 57 54 50 48 50 49 46 42 37 37 38 34 31 31 33 36 35 32 27 23 22 21 19 18 16 14 12 9 6 7 9 7
40 39 37 36 34 32 30 28 27 27 26 27 26 26 25 24 23 22 21 21 21 21 22 23 24 25 26 28 30 32 34 35 37 39 41 43 44 45 47 47 49 49 50 52 53 53 52 49 48 49 50 51 53 55 57 57 57 56 52 48 50 51 49 46 42 41 41 38 35 34 35 37 37 33 30 26 23 22 21 20 19 17 14 12 8 7 9 8
40 39 37 36 34 32 30 28 27 27 27 27 27 26 25 24 23 21 20 20 20 20 21 21 22 23 25 26 27 29 30 32 33 35 37 39 41 43 45 47 49 50 51 52 53 55 53 51 51 51 50 51 53 55 57 57 56 56 53 50 52 54 52 51 49 47 44 41 39 40 40 38 36 34 32 28 26 24 23 22 22 19 16 14 11 9 10 10
39 38 37 35 33 31 29 28 27 27 27 26 26 26 25 24 23 21 20 20 20 20 20 20 21 22 23 23 24 25 27 28 29 31 32 34 36 39 42 45 47 48 50 52 54 54 54 54 55 53 51 51 53 55 56 56 55 55 55 53 52 55 55 53 51 49 47 44 42 45 45 40 36 36 33 30 28 26 25 24 24 22 19 16 14 11 10 11
39 38 37 35 32 31 30 28 27 27 27 26 26 25 25 24 23 22 21 20 20 20 19 20 20 21 21 22 22 22 23 24 26 27 28 30 32 34 37 40 43 46 49 51 53 54 54 57 58 55 54 53 53 55 56 57 56 56 58 58 55 56 56 55 53 52 51 50 47 45 47 43 38 37 36 33 30 28 28 27 27 25 22 19 15 13 12 12
39 38 36 34 32 31 30 29 28 27 27 26 25 24 24 23 22 22 21 21 20 20 19 19 19 20 21 21 21 21 21 22 23 25 26 27 29 31 33 36 39 42 45 49 52 54 55 58 59 59 57 55 55 55 56 57 58 59 60 61 59 58 59 58 57 54 52 55 54 49 48 46 42 39 39 37 34 32 31 30 28 26 25 21 17 15 15 14
38 37 36 34 32 31 31 30 29 27 26 25 24 23 23 23 22 21 21 21 21 20 19 19 19 20 20 20 20 20 21 21 22 23 25 26 28 30 32 35 37 39 42 46 49 52 56 58 60 61 60 59 57 56 56 57 59 61 62 62 61 61 62 62 61 59 55 57 59 56 52 47 44 43 41 40 37 35 33 32 29 28 27 24 20 18 17 17
37 36 35 34 33 32 31 31 29 27 25 24 23 23 22 22 21 21 20 20 21 20 19 19 19 20 20 20 20 20 21 21 22 23 24 26 28 30 32 34 37 39 42 44 47 51 56 58 60 62 63 62 60 58 57 58 60 62 63 63 62 62 65 65 63 63 60 59 61 61 56 49 46 45 43 42 40 37 35 33 31 29 29 27 23 21 20 19
37 36 35 34 34 33 32 31 30 27 24 23 22 22 22 22 21 21 20 20 20 20 19 19 19 20 20 21 20 21 21 21 22 22 23 25 27 29 31 33 36 39 42 45 48 52 54 57 60 63 65 64 63 62 60 59 60 62 63 64 64 62 64 66 66 65 64 62 61 62 60 53 48 46 46 45 43 40 37 34 33 32 32 31 27 24 22 21
36 35 35 35 34 33 33 32 29 26 24 22 22 21 22 22 21 20 20 20 20 20 19 19 19 20 20 21 21 21 21 21 21 22 23 24 25 27 29 32 35 38 42 46 50 53 55 57 60 64 66 65 65 65 63 61 61 61 62 64 63 61 63 66 67 67 66 64 63 62 62 57 53 50 49 48 47 43 39 36 35 35 34 33 30 27 24 23
36 35 35 35 35 34 33 31 27 25 23 21 21 21 21 22 22 21 20 20 20 20 19 19 19 19 20 20 20 21 20 20 20 21 22 23 25 26 28 31 34 37 41 45 50 54 58 60 61 64 66 66 67 67 66 64 63 63 63 64 62 61 64 68 68 67 65 65 65 62 61 60 57 56 53 51 49 46 42 39 37 38 37 35 33 30 27 26
36 34 34 35 35 34 32 29 25 24 23 21 20 20 20 21 22 21 20 20 20 20 19 19 19 19 20 20 20 20 20 20 20 21 22 23 24 26 29 31 33 35 39 43 49 55 59 62 65 67 67 67 68 68 68 68 67 67 66 65 64 62 65 69 68 67 65 65 65 63 61 62 60 59 56 53 51 47 44 42 40 40 39 37 35 32 30 28
36 35 34 34 34 34 31 26 23 23 22 21 20 20 20 21 21 21 20 20 20 20 19 19 18 19 19 20 20 20 20 20 20 20 21 22 24 27 30 31 31 32 35 40 47 53 59 64 68 70 69 69 69 70 72 73 72 71 69 68 69 67 69 70 67 67 67 65 66 63 61 63 63 61 59 55 52 48 45 44 42 41 41 39 37 35 33 32
36 35 34 34 34 32 28 24 22 21 21 20 19 19 20 20 21 21 21 20 20 20 19 19 19 19 19 19 20 20 20 20 20 20 21 23 25 28 30 31 30 29 31 36 42 49 57 64 69 72 72 72 72 72 74 75 74 74 72 71 71 71 71 72 68 67 68 66 66 66 64 63 65 65 62 58 54 49 47 45 44 43 43 42 40 39 37 35
36 35 33 33 32 30 26 22 20 19 20 19 19 19 19 20 21 21 21 21 21 20 20 20 20 19 19 19 20 20 20 20 20 20 21 23 26 29 31 32 30 27 28 32 36 43 52 60 68 73 76 76 75 75 75 75 76 76 75 73 73 73 72 73 72 70 67 66 68 70 68 65 66 67 66 62 58 53 49 47 46 46 46 44 43 43 40 36
35 34 33 31 30 28 24 20 18 17 18 18 18 18 19 19 20 21 22 22 21 20 20 20 20 19 19 19 20 20 20 20 20 20 21 23 26 29 31 32 30 27 26 28 31 37 45 54 64 72 77 79 79 78 77 77 77 77 77 76 76 76 73 71 72 72 68 67 70 72 69 67 67 68 68 67 65 60 54 50 49 49 48 47 46 44 42 38
35 34 32 29 27 26 23 20 17 16 17 17 18 18 18 18 20 21 22 22 22 21 20 20 21 20 20 20 20 20 21 21 21 21 22 24 26 28 31 32 31 27 24 24 26 30 37 47 58 68 76 80 81 81 80 79 79 79 79 79 77 76 74 71 71 72 72 69 69 74 73 70 70 71 71 70 69 66 61 56 53 52 51 50 48 47 44 41
34 32 29 26 25 24 23 20 18 16 16 16 17 17 17 18 19 20 22 22 23 22 21 21 22 21 20 20 20 20 21 22 22 21 22 24 25 27 30 32 31 28 25 22 22 25 31 41 50 60 71 78 81 83 82 81 81 81 81 81 79 77 77 75 71 73 76 71 68 74 76 73 72 73 72 71 70 68 65 62 59 56 54 53 51 49 46 44
33 30 27 23 23 23 23 21 19 17 16 17 17 17 18 18 18 19 21 22 23 23 22 21 22 22 21 20 20 20 21 22 23 22 23 24 25 27 29 31 31 29 26 21 18 20 27 35 42 51 63 72 78 82 84 84 83 83 82 82 82 79 78 78 74 74 77 74 71 74 77 76 75 75 74 71 69 68 67 66 64 61 58 56 54 51 49 47
30 27 24 22 22 23 23 22 21 19 18 18 18 19 18 19 19 19 20 21 22 23 22 22 22 22 21 20 20 21 21 23 24 24 24 25 25 26 28 30 31 30 27 22 16 16 23 30 37 45 54 64 74 82 86 87 87 87 85 84 84 82 80 80 77 75 77 77 76 76 78 79 79 78 76 73 69 68 69 69 68 65 61 59 58 55 51 49
28 26 24 22 23 24 24 24 24 22 21 21 20 20 20 20 20 20 20 21 21 22 22 22 22 22 21 21 21 21 22 23 24 25 25 25 25 26 27 29 31 31 29 24 17 13 18 26 35 43 50 60 71 80 86 88 89 90 89 86 85 84 82 82 81 79 79 82 81 79 79 82 82 80 79 77 72 69 69 71 71 69 65 62 60 58 55 52
28 26 25 24 25 26 27 27 27 26 25 24 24 23 23 22 22 21 21 22 22 22 21 21 22 22 21 21 21 22 22 23 25 26 26 26 26 26 26 28 30 31 30 26 19 13 14 22 31 40 47 55 65 74 82 87 90 91 90 87 85 86 85 84 84 84 81 82 83 81 79 81 83 82 79 78 76 72 70 71 71 71 69 65 63 62 59 55
30 30 29 28 29 30 31 32 31 31 30 29 28 27 26 25 24 23 23 23 23 22 21 21 21 22 22 21 21 22 22 23 25 26 27 27 26 26 26 26 28 30 30 27 22 14 11 17 26 36 43 49 57 66 75 83 88 90 90 87 85 87 87 85 86 87 84 82 83 82 79 80 83 82 80 79 79 77 74 71 70 71 72 70 66 65 63 59
35 35 34 33 33 34 34 35 35 34 33 32 31 31 30 29 28 27 25 25 24 23 22 21 20 21 22 22 22 22 23 23 25 27 28 27 27 26 26 26 27 29 30 28 25 18 10 13 21 30 39 45 51 59 67 77 85 86 89 90 88 87 87 86 87 89 88 85 84 83 82 83 85 83 81 81 81 80 79 74 69 69 73 74 70 68 66 62
36 36 37 36 35 35 35 35 35 34 34 33 32 32 32 31 31 29 28 27 26 25 24 22 20 21 21 22 22 22 23 24 26 27 28 28 27 26 25 25 26 27 29 28 26 21 13 9 15 24 34 42 49 55 62 71 79 81 85 92 92 90 89 87 87 89 89 87 85 84 82 84 85 84 82 83 84 83 83 80 73 68 69 74 74 71 69 66
33 34 35 35 34 32 32 32 32 31 31 31 31 31 31 31 31 31 29 28 28 27 25 23 22 21 21 22 22 22 23 25 26 27 28 28 27 26 26 25 25 26 28 28 27 23 17 8 11 19 26 34 42 50 57 66 74 78 83 90 94 94 93 91 90 91 90 89 87 85 84 84 84 85 84 84 86 86 85 84 82 74 68 71 76 75 72 70
32 32 32 32 31 29 29 29 29 29 28 28 29 29 29 29 30 30 29 28 28 28 27 25 23 22 21 21 22 22 23 25 27 27 28 28 27 26 26 25 25 25 26 28 27 25 20 12 8 15 21 26 32 40 50 61 69 74 80 88 93 95 95 93 92 92 91 90 87 87 88 87 84 84 84 86 87 87 86 86 86 83 74 69 73 77 75 73
32 31 31 31 30 28 27 28 28 29 28 28 28 28 27 27 28 29 28 27 27 28 27 26 25 23 22 21 21 22 24 25 27 27 27 28 27 26 26 25 24 24 25 26 27 25 22 17 7 11 19 24 28 34 43 54 65 75 82 88 92 94 96 95 93 92 91 91 90 88 88 88 86 84 85 86 88 88 87 87 87 87 83 74 70 76 79 77
31 31 31 31 31 30 29 28 28 29 29 28 28 28 28 27 27 27 27 25 26 26 27 27 26 25 23 21 21 22 24 26 26 26 27 28 27 26 26 25 24 24 24 25 26 25 23 20 12 7 16 23 27 32 38 45 58 72 83 89 91 91 94 97 96 94 92 91 92 91 89 87 86 85 85 86 88 89 88 88 88 88 88 82 73 73 78 79
30 30 30 30 31 30 29 29 29 29 29 29 29 29 28 28 27 27 26 25 24 25 25 26 27 26 24 22 21 22 24 25 25 25 26 27 27 26 26 26 25 24 23 23 25 25 24 21 18 11 10 19 26 32 38 43 52 66 78 87 91 91 94 98 98 96 94 92 92 92 90 87 85 85 85 85 87 89 89 89 89 88 89 87 80 74 75 79
31 30 30 30 30 30 29 29 29 29 30 30 30 30 30 29 28 27 26 25 24 23 24 25 26 27 26 24 23 22 23 24 24 23 24 26 27 26 26 25 25 24 23 23 23 24 24 23 20 16 10 12 20 27 35 43 50 59 69 80 88 92 95 97 99 98 96 93 93 92 90 88 85 85 86 86 86 89 90 89 89 89 89 89 86 80 75 76
Wind_Direction
300 300 299 298 296 295 293 289 285 281 277 273 268 264 261 257 252 248 246 244 242 240 237 233 230 228 226 224 223 221 219 219 219 219 218 217 217 217 216 215 214 214 214 214 213 212 210 210 210 212 213 213 214 215 213 210 208 204 202 206 213 214 221 266 344 34 49 25 7 8 25 32 27 30 38 40 36 33 32 35 38 40 40 42 45 47 47 47
301 302 301 299 298 296 293 291 287 283 278 275 271 266 262 258 256 251 247 245 243 241 239 236 233 231 228 226 225 224 222 221 220 220 219 218 218 218 217 216 215 214 215 216 215 214 212 211 211 212 214 214 214 216 216 213 211 206 205 209 211 217 226 233 343 24 51 32 8 12 32 39 31 30 37 41 40 35 33 34 37 41 42 43 45 47 48 47
303 303 303 301 300 297 294 291 288 285 280 275 272 268 264 259 256 253 249 246 244 242 241 239 236 233 231 228 227 226 225 223 222 221 220 219 219 219 218 217 215 215 216 216 217 216 214 212 211 212 214 215 214 216 217 215 213 207 207 211 211 216 219 194 164 278 61 37 12 36 43 38 35 31 35 42 43 37 34 34 35 40 43 44 45 47 48 48
305 305 305 304 302 300 297 293 289 285 281 276 272 268 265 261 257 254 251 248 245 243 242 240 238 235 233 231 229 228 227 226 224 222 221 221 220 220 219 218 216 216 216 217 217 217 216 214 213 213 214 215 215 216 217 217 215 211 210 211 212 215 213 184 173 213 132 41 357 64 54 39 38 33 33 41 45 41 36 35 34 39 44 45 46 47 48 49
307 307 307 306 304 301 299 295 291 286 281 277 273 268 264 261 258 254 252 250 247 244 242 241 239 237 235 232 231 229 229 228 226 224 223 222 222 221 220 219 218 217 217 217 218 218 218 216 214 214 215 216 216 217 217 217 217 214 214 214 212 213 209 189 178 199 179 123 295 61 53 53 45 33 34 40 46 43 39 37 35 37 44 46 46 47 48 49
310 310 309 308 306 304 301 298 294 288 282 276 272 269 265 261 258 255 252 250 248 246 243 241 240 238 237 235 233 231 231 230 228 226 224 224 224 223 221 220 219 219 218 218 218 218 219 218 216 214 215 216 217 217 217 217 217 216 216 215 211 210 208 195 183 189 179 193 261 254 48 68 63 36 36 40 45 45 41 40 37 37 44 47 47 47 48 49
312 313 312 311 310 307 304 300 295 290 284 278 273 269 266 262 258 255 252 250 248 246 244 242 240 239 238 236 235 233 233 231 230 228 226 225 225 224 223 222 221 220 219 218 218 218 219 219 218 216 215 216 217 217 217 217 218 216 216 216 211 207 207 201 194 201 196 207 252 251 33 85 91 46 41 43 46 47 45 45 40 37 43 48 48 48 49 49
314 314 314 313 312 309 306 301 297 292 286 281 274 269 265 263 259 255 252 249 247 246 244 243 241 239 238 236 235 235 235 233 231 230 228 226 226 225 225 224 222 221 221 220 219 218 218 219 219 218 216 216 217 217 217 217 218 216 216 215 211 206 207 205 199 207 220 222 240 243 238 140 112 69 57 53 49 50 47 48 45 40 43 48 49 48 49 50
314 315 315 314 313 311 307 303 299 294 289 282 276 270 265 262 260 256 252 249 247 245 243 242 241 240 238 236 236 235 235 234 232 232 230 228 226 225 225 225 224 223 222 221 220 219 219 219 219 219 218 217 217 217 217 217 217 216 216 215 211 207 206 208 205 204 219 225 229 238 240 225 153 109 84 73 57 53 51 51 50 45 43 47 50 49 49 51
315 316 316 315 314 312 309 305 301 297 291 284 277 272 266 262 259 257 254 250 247 244 242 241 240 240 238 237 235 235 235 234 233 233 231 230 228 226 225 225 225 224 223 223 222 220 219 219 219 219 219 218 217 217 217 217 216 216 215 214 211 208 204 208 212 210 216 222 225 232 240 235 204 152 115 99 71 59 56 53 55 51 46 47 50 50 50 52
317 317 317 316 315 313 310 306 303 298 293 286 279 273 268 263 259 257 255 252 248 245 242 240 239 239 238 237 235 234 234 234 234 234 232 231 230 227 226 225 225 225 224 224 224 222 219 218 219 219 219 219 219 218 217 217 217 216 215 213 211 209 203 206 213 215 217 219 222 229 236 237 225 195 148 126 96 71 65 59 60 59 51 47 50 51 51 52
318 318 318 318 316 314 311 308 304 300 295 289 282 275 269 264 260 257 254 252 250 246 244 241 239 238 237 237 235 234 234 233 233 233 233 233 231 230 227 226 225 225 225 225 225 223 221 219 218 218 219 220 219 218 218 217 218 217 215 214 212 208 205 207 212 216 218 216 219 226 233 236 231 220 181 148 123 88 77 70 66 67 59 50 50 52 54 54
319 320 320 319 317 315 312 309 305 301 296 291 285 278 271 265 261 257 254 251 249 247 245 243 240 239 238 237 236 235 234 233 232 232 233 234 233 232 229 227 226 225 225 226 227 225 222 220 219 219 219 219 219 218 218 218 217 217 216 215 214 210 207 209 214 219 221 220 221 227 232 234 233 230 207 173 147 108 92 87 78 76 68 55 51 53 56 57
320 321 321 320 319 316 314 310 307 303 298 294 288 281 274 267 262 257 254 251 249 247 246 244 242 240 238 237 237 236 234 233 233 232 231 233 234 233 232 229 227 225 224 226 227 226 224 221 220 219 219 219 219 218 218 217 217 217 215 215 216 213 208 210 216 223 226 227 225 225 229 232 233 231 217 198 173 138 113 105 96 87 80 65 52 52 56 60
321 321 322 321 320 318 316 313 309 305 301 296 290 284 277 270 263 258 254 251 248 247 245 244 243 241 240 239 237 236 235 234 233 232 231 231 232 233 233 232 229 227 225 225 227 227 225 223 220 220 219 219 218 218 218 217 217 216 214 214 216 214 209 210 218 224 228 229 226 223 225 227 230 230 219 205 189 165 145 126 114 100 92 79 57 51 56 62
321 321 322 322 321 320 318 315 312 307 303 298 293 288 281 274 267 260 255 250 248 246 245 243 242 241 241 240 238 237 236 235 234 233 231 230 230 231 232 233 232 230 227 225 227 227 226 223 222 221 220 219 218 218 217 217 218 216 215 213 214 213 209 210 217 222 226 227 223 221 224 224 225 228 221 207 194 176 168 152 131 115 102 93 72 52 53 62
320 321 322 322 322 321 319 316 313 309 305 301 296 291 285 278 271 264 257 252 248 246 244 243 242 241 241 240 239 238 237 236 234 233 232 231 230 229 230 231 232 232 230 227 227 227 226 224 223 221 220 219 218 218 217 218 218 217 216 214 212 212 210 209 216 221 224 222 220 221 223 223 223 225 223 212 201 187 176 172 153 129 112 103 92 64 51 60
320 321 322 322 322 321 320 317 314 311 307 302 298 293 288 282 276 269 262 256 250 247 245 244 243 242 241 240 239 238 237 236 236 234 233 232 231 229 229 229 230 232 232 231 228 227 226 225 222 221 220 219 218 218 217 217 218 216 215 214 212 212 210 209 213 218 221 218 217 220 221 221 222 224 225 219 209 205 194 184 176 148 125 112 107 89 57 58
320 321 322 322 322 321 320 317 315 311 307 303 299 295 290 285 280 274 267 260 255 250 247 245 244 243 242 241 240 239 238 237 236 235 233 232 231 230 229 229 229 229 231 232 231 229 227 225 223 221 220 219 218 217 216 217 218 216 214 213 212 212 212 210 211 216 219 217 214 218 221 220 222 224 223 222 217 219 214 192 187 173 146 125 117 111 81 61
319 320 321 321 321 321 320 317 314 311 308 304 300 296 292 288 283 278 271 265 259 254 250 247 245 244 244 243 242 240 239 238 237 236 234 233 232 231 230 229 228 228 229 231 232 231 228 225 223 221 219 219 218 217 217 217 218 216 214 212 212 213 214 212 211 217 220 219 216 218 222 222 224 224 219 221 223 226 222 199 192 188 169 153 130 125 114 81
319 320 320 321 321 320 319 317 314 311 308 304 301 298 294 290 286 281 276 270 264 258 254 250 247 245 245 244 243 241 240 239 237 237 235 234 233 232 231 230 229 228 228 229 231 232 230 227 224 221 219 218 218 218 217 217 218 217 213 213 213 213 214 211 210 216 219 218 218 219 224 225 225 224 217 220 225 226 222 209 203 198 184 182 152 135 133 115
318 319 319 320 320 319 318 316 314 311 308 305 302 298 294 291 287 282 278 274 269 264 258 254 250 247 246 245 244 242 241 240 238 237 236 235 234 233 232 231 230 228 228 229 230 232 232 229 225 222 219 217 218 218 217 217 218 217 214 212 213 213 214 211 209 215 216 215 217 219 223 226 225 222 218 218 221 221 220 215 213 210 195 195 183 150 143 137
317 318 319 319 319 318 317 316 314 312 308 305 302 298 294 291 287 283 279 274 270 266 262 259 255 251 248 245 244 243 242 241 240 239 238 237 235 234 233 232 231 230 229 229 230 230 231 231 228 224 220 218 218 218 217 217 217 216 213 212 212 211 211 211 208 211 213 210 215 219 222 224 222 220 219 217 215 217 219 216 217 218 205 198 199 171 151 149
316 317 318 318 318 317 317 316 315 312 309 305 302 298 295 291 287 284 280 275 270 266 263 261 258 254 250 247 245 243 242 241 241 240 240 239 237 236 235 234 232 231 230 229 229 230 230 231 231 226 221 219 219 218 217 216 216 215 212 211 212 209 208 210 208 209 211 208 213 221 224 223 220 219 220 217 213 215 218 217 219 222 213 201 204 192 165 158
315 316 316 317 317 317 317 316 315 312 308 304 301 298 295 292 289 286 283 278 274 269 266 263 260 256 252 247 244 243 242 242 241 241 241 241 240 239 238 236 235 233 232 231 230 230 229 230 231 229 224 221 220 219 217 215 215 214 212 210 212 210 208 209 208 208 209 208 211 219 225 224 219 219 222 217 213 216 217 217 219 223 217 206 207 205 183 167
314 315 316 316 317 317 317 316 315 312 308 303 299 296 294 291 289 287 284 280 277 273 271 267 263 259 254 249 245 242 241 241 241 242 241 242 242 242 241 239 238 236 234 232 231 230 229 229 230 230 227 224 222 220 217 215 214 213 212 211 211 210 208 208 207 206 207 208 209 214 220 222 218 219 223 220 214 216 218 216 217 221 218 211 209 210 197 179
314 314 315 316 317 317 317 316 315 312 307 302 297 294 292 289 287 285 283 281 278 276 273 270 265 261 257 252 248 245 242 241 241 242 243 243 244 244 245 244 242 240 237 234 232 230 229 229 229 230 228 226 223 221 218 216 214 214 214 212 211 211 209 208 208 207 206 207 208 210 213 216 216 216 221 221 215 214 217 216 215 219 219 214 210 211 204 191
313 313 315 316 317 318 317 316 314 312 307 300 294 291 289 287 284 283 282 281 280 278 275 271 265 261 258 255 251 248 246 243 242 244 244 245 246 247 247 247 246 244 241 237 233 231 230 228 228 229 228 227 225 222 219 217 215 214 215 213 211 211 210 209 209 208 207 207 208 210 210 210 213 215 217 220 216 213 215 216 215 218 220 217 212 210 207 199
312 313 314 316 317 318 317 316 314 311 306 299 293 289 287 285 283 281 280 280 280 278 277 273 267 262 259 256 254 252 250 248 247 247 248 249 249 249 248 247 247 246 244 241 236 233 231 228 228 228 227 226 225 223 221 218 217 215 215 214 211 211 211 210 209 208 209 209 210 211 210 206 209 215 218 218 217 213 212 215 217 218 219 218 214 210 208 205
312 313 314 316 317 318 317 316 314 310 304 298 292 289 287 285 283 280 278 279 279 279 277 273 268 264 261 259 256 255 253 253 253 254 255 256 256 255 253 250 248 246 244 241 238 236 233 229 227 227 226 225 223 223 221 219 218 217 216 214 213 213 213 211 210 210 210 211 212 213 213 208 206 214 219 218 217 214 211 214 217 219 219 217 215 210 207 207
311 312 314 316 317 317 317 315 313 309 303 298 292 289 287 286 284 281 279 279 280 280 278 273 268 264 262 262 260 258 257 258 260 263 265 267 266 266 264 260 255 249 244 240 237 236 234 230 228 226 226 224 223 223 222 220 219 218 217 215 214 214 214 212 212 211 211 212 213 214 214 211 206 211 217 217 217 214 212 214 216 217 218 217 215 211 207 209
310 312 314 315 316 317 316 314 311 307 304 299 294 289 287 286 284 282 280 279 279 280 279 276 271 267 264 263 264 262 262 263 267 272 275 278 279 280 280 275 267 258 249 242 237 234 232 231 228 226 224 223 222 222 222 221 219 218 217 215 214 214 214 213 212 212 212 213 214 214 214 212 209 211 215 216 216 214 213 214 216 216 216 216 216 213 208 209
309 311 314 315 316 316 315 313 310 307 305 301 295 289 286 286 285 283 281 280 280 280 280 278 274 270 268 266 266 267 267 269 273 278 282 285 288 291 291 287 279 266 255 245 238 234 230 228 227 226 223 221 220 219 220 220 219 218 216 214 213 214 214 213 212 211 211 213 214 213 213 213 211 211 213 216 216 214 214 215 215 216 216 215 216 215 211 210
308 311 313 314 315 315 313 311 310 308 306 303 297 290 286 285 284 283 282 281 281 281 281 280 276 273 271 270 270 271 272 275 278 283 288 291 294 296 297 295 287 273 260 249 240 234 229 226 225 224 222 220 217 216 217 218 218 217 215 213 213 213 213 211 211 210 211 213 213 212 213 213 212 211 211 213 215 213 214 215 214 215 215 215 216 215 214 212
308 310 312 313 314 313 311 309 310 310 308 305 299 292 288 286 285 285 284 282 282 283 283 283 280 276 274 273 273 275 276 279 282 287 293 297 299 301 303 303 296 282 268 254 242 234 228 224 223 222 221 219 216 214 215 216 217 217 216 214 213 214 214 211 209 208 210 214 214 212 212 212 213 212 210 211 213 211 212 215 215 215 216 215 215 215 215 214
306 308 310 312 313 311 308 307 309 312 312 309 303 296 290 287 286 286 286 285 285 285 285 285 283 280 277 275 276 277 279 281 284 291 297 301 303 305 309 310 305 294 279 263 247 237 230 224 221 220 218 217 215 213 213 214 216 216 216 215 214 214 214 213 211 208 208 212 214 212 212 213 214 214 211 211 211 210 211 214 215 215 216 216 215 214 215 215
305 307 309 311 310 307 305 304 307 312 315 315 311 303 295 290 288 287 287 287 287 287 287 286 285 282 279 277 277 279 282 284 287 293 299 303 307 310 315 317 314 306 293 274 254 240 232 224 221 219 217 216 214 212 211 212 214 215 215 215 214 214 214 213 212 209 208 211 213 211 210 212 215 215 213 213 212 211 212 214 215 215 216 217 217 215 214 215
303 305 307 308 306 304 302 302 303 309 314 318 318 314 306 296 290 288 287 287 288 288 289 288 286 285 282 279 279 280 283 286 289 294 302 306 310 315 320 324 322 316 306 286 261 243 234 226 221 218 216 214 213 211 209 209 212 214 215 215 215 214 214 213 211 209 209 212 212 211 209 210 213 214 214 214 214 214 214 215 215 216 216 217 217 216 215 216
302 304 304 304 302 300 300 299 299 303 309 314 318 321 318 310 300 292 288 288 289 289 290 289 287 286 284 281 280 282 285 288 290 295 304 308 313 318 324 329 329 325 318 299 269 247 237 229 221 218 216 214 212 210 209 208 210 212 214 214 214 213 213 213 211 209 209 211 212 211 209 209 212 214 214 215 215 214 215 216 216 215 215 216 217 216 216 217
300 300 300 299 298 297 297 297 296 299 303 307 312 317 320 320 314 305 296 292 290 290 291 290 288 286 285 282 282 284 286 289 292 297 305 310 315 320 327 333 335 333 328 312 282 253 239 230 222 218 216 214 212 210 208 207 208 210 212 213 213 213 211 211 211 210 209 210 212 211 208 208 210 213 213 214 215 215 214 215 216 216 215 215 216 216 216 219
297 296 295 294 294 295 295 295 295 296 298 301 305 309 313 317 320 317 310 301 294 292 292 291 288 287 285 284 283 284 286 290 294 298 305 310 316 322 329 337 341 340 336 326 301 262 242 231 222 217 214 212 211 209 208 206 206 208 210 212 213 213 212 211 212 211 210 211 211 210 208 208 209 211 212 211 212 214 214 215 216 216 216 216 217 217 217 220
294 292 291 290 291 292 292 293 293 294 294 296 299 301 305 309 313 316 317 312 304 298 296 293 290 287 286 285 283 284 286 290 294 298 304 310 316 323 331 340 345 346 343 337 320 279 247 232 223 216 212 210 209 209 207 206 205 206 208 210 212 212 211 210 210 211 211 212 213 211 208 208 209 209 210 210 209 210 213 215 216 216 215 216 218 218 217 218
290 289 287 287 288 288 290 290 291 291 291 292 294 295 297 301 305 308 312 314 311 307 301 296 292 288 287 285 283 283 285 289 294 298 303 309 315 322 332 341 348 350 348 344 334 303 255 234 224 218 214 211 209 208 207 207 206 206 207 208 211 212 211 209 209 210 211 211 213 212 210 210 210 208 209 209 207 207 210 213 216 216 215 216 218 219 219 217
288 287 286 285 286 287 287 288 288 288 288 288 289 290 292 294 296 300 303 307 309 310 307 301 294 290 287 285 282 282 284 287 292 296 301 308 314 321 330 340 348 353 352 350 344 327 276 239 225 219 216 212 209 208 207 207 207 207 207 207 209 211 211 209 209 210 211 211 212 213 211 211 211 209 208 209 208 207 207 210 213 216 216 215 216 219 220 219
286 285 285 284 284 285 285 286 286 285 285 285 285 285 287 288 290 292 294 297 301 305 307 305 297 291 287 285 283 282 283 285 289 294 299 305 312 319 327 338 348 353 355 354 350 340 306 250 229 221 217 213 207 205 207 207 207 207 207 207 209 210 210 209 209 210 212 212 213 214 213 212 212 210 208 209 209 209 208 207 208 213 217 217 216 217 220 219
284 284 284 283 283 283 283 283 284 284 283 283 283 282 283 284 285 286 288 290 292 296 301 303 300 293 288 286 284 282 281 283 286 291 297 302 309 316 324 334 345 352 355 357 355 349 332 271 236 224 219 215 208 204 205 206 205 206 207 208 209 211 210 209 209 210 212 213 215 215 214 214 213 210 209 209 209 209 209 207 206 208 214 218 217 217 219 219
285 284 284 283 283 282 281 281 282 282 282 283 283 282 282 282 282 283 283 285 286 288 291 296 298 295 289 285 284 282 280 281 283 288 294 300 306 313 320 329 341 350 354 358 358 354 347 309 241 227 222 218 212 207 205 204 203 205 207 207 209 211 211 210 210 210 210 212 215 216 215 215 214 211 209 210 209 210 210 209 208 207 209 217 220 219 219 220
284 283 283 283 282 280 279 279 280 281 283 283 284 283 283 282 281 281 280 281 282 282 283 286 290 292 290 285 283 281 279 278 280 284 291 297 302 309 316 324 335 346 352 355 359 358 353 338 257 225 220 216 213 211 208 204 203 204 205 207 210 211 212 212 211 211 210 210 213 215 216 216 215 212 211 211 210 210 211 211 211 210 208 212 219 221 220 221
282 281 280 280 280 279 278 278 279 281 282 283 284 284 285 284 283 282 281 280 279 279 279 280 282 286 288 285 282 279 277 276 278 282 288 293 298 305 312 319 329 340 348 352 356 359 358 351 313 232 221 217 214 212 209 206 206 206 205 206 209 211 212 213 213 212 211 210 212 214 216 216 215 214 213 212 211 211 212 212 212 213 211 209 215 221 223 223
281 279 277 277 277 277 277 277 278 279 281 282 283 284 284 285 285 284 283 281 279 277 276 275 276 279 282 284 281 276 275 275 277 280 284 288 294 301 307 314 323 333 343 348 352 356 359 356 343 271 229 222 219 215 210 207 207 207 207 207 208 210 212 213 214 213 212 212 212 214 217 217 216 215 214 213 213 212 213 214 213 214 213 211 211 217 223 224
281 279 277 275 274 275 275 276 277 279 280 281 281 282 283 283 285 285 285 283 280 277 274 272 271 272 275 279 279 275 273 274 276 277 279 283 290 296 302 309 317 326 335 343 348 352 356 357 353 332 258 230 224 220 215 210 207 207 207 207 208 210 212 213 213 214 213 212 213 214 216 217 217 216 215 214 214 214 214 214 214 214 214 213 211 213 220 224
280 280 278 275 273 273 274 276 278 279 280 280 280 281 281 281 282 283 284 283 281 278 274 271 268 268 269 273 276 275 274 274 274 274 275 278 284 290 296 303 311 319 328 336 342 347 351 354 355 351 321 254 233 225 219 213 209 207 209 210 210 211 212 212 213 213 213 213 213 214 216 216 216 217 216 215 215 215 215 215 215 214 214 215 213 211 215 221
Height
10938 10938 10938 10937 10937 10936 10936 10936 10935 10935 10935 10935 10935 10936 10936 10936 10937 10938 10938 10938 10939 10939 10940 10941 10942 10944 10946 10947 10949 10951 10953 10955 10958 10960 10963 10966 10969 10971 10975 10978 10981 10984 10986 10987 10989 10992 10994 10996 10998 10999 11001 11003 11004 11006 11007 11008 11010 11011 11013 11014 11014 11015 11015 11015 11016 11015 11015 11014 11014 11014 11014 11013 11012 11012 11010 11008 11007 11005 11002 10998 10996 10993 10990 10988 10985 10981 10978 10974
10937 10937 10936 10936 10935 10935 10934 10934 10933 10933 10933 10933 10933 10933 10934 10934 10934 10935 10936 10936 10937 10937 10938 10939 10940 10941 10943 10945 10946 10948 10950 10952 10954 10956 10959 10963 10965 10968 10971 10975 10978 10981 10983 10985 10987 10989 10992 10994 10996 10998 10999 11001 11003 11004 11006 11007 11009 11011 11012 11013 11014 11014 11015 11015 11015 11015 11015 11014 11015 11015 11014 11014 11013 11012 11011 11009 11008 11006 11004 11001 10998 10995 10992 10990 10987 10984 10980 10977
10936 10935 10935 10934 10934 10933 10932 10932 10931 10931 10930 10930 10930 10931 10931 10931 10932 10932 10933 10934 10935 10935 10936 10937 10938 10939 10941 10942 10944 10945 10946 10948 10950 10953 10956 10959 10962 10965 10968 10972 10975 10978 10981 10982 10984 10987 10990 10992 10994 10996 10997 10999 11001 11002 11004 11006 11008 11010 11011 11012 11013 11013 11014 11015 11015 11015 11015 11014 11015 11015 11015 11014 11014 11013 11012 11011 11009 11007 11006 11003 11000 10997 10994 10992 10990 10987 10983 10980
10934 10934 10933 10932 10932 10931 10930 10929 10929 10928 10928 10927 10928 10928 10928 10929 10929 10929 10930 10931 10932 10933 10934 10935 10936 10937 10938 10940 10941 10942 10943 10945 10947 10950 10953 10956 10959 10961 10965 10968 10972 10975 10978 10980 10982 10984 10987 10990 10992 10994 10996 10997 10999 11001 11002 11004 11006 11008 11009 11010 11012 11013 11014 11014 11015 11015 11015 11014 11015 11015 11015 11015 11014 11014 11013 11012 11010 11009 11007 11005 11002 11000 10997 10995 10993 10990 10986 10982
10932 10932 10931 10930 10929 10928 10927 10927 10926 10925 10925 10924 10924 10925 10925 10925 10926 10926 10927 10928 10929 10930 10931 10932 10933 10935 10936 10937 10938 10939 10940 10942 10944 10947 10950 10952 10955 10958 10961 10965 10968 10971 10974 10977 10979 10982 10984 10987 10990 10992 10993 10995 10997 10999 11001 11003 11005 11006 11008 11010 11011 11012 11013 11014 11014 11014 11014 11014 11014 11015 11015 11015 11015 11014 11014 11013 11011 11010 11009 11007 11004 11002 10999 10997 10995 10993 10989 10985
10930 10930 10929 10928 10927 10926 10925 10924 10923 10922 10922 10921 10921 10921 10921 10922 10923 10923 10924 10925 10926 10927 10928 10930 10931 10932 10933 10935 10935 10937 10938 10939 10941 10944 10947 10949 10951 10955 10958 10962 10965 10968 10971 10973 10976 10979 10981 10984 10987 10989 10991 10993 10995 10997 10999 11001 11003 11005 11007 11009 11011 11012 11013 11013 11014 11014 11014 11014 11014 11015 11015 11015 11015 11015 11014 11014 11012 11011 11010 11008 11007 11004 11001 10999 10998 10996 10992 10988
10928 10927 10926 10925 10924 10923 10922 10921 10920 10919 10919 10918 10918 10918 10918 10918 10919 10920 10920 10921 10922 10923 10925 10926 10928 10930 10931 10932 10933 10934 10935 10936 10939 10941 10943 10946 10948 10951 10955 10958 10961 10964 10967 10970 10973 10975 10978 10981 10984 10986 10989 10991 10993 10995 10997 10999 11001 11003 11006 11008 11010 11011 11012 11013 11014 11014 11014 11014 11014 11015 11015 11016 11016 11015 11015 11015 11013 11012 11011 11010 11008 11006 11004 11001 11000 10998 10995 10991
10926 10925 10924 10923 10921 10920 10919 10918 10917 10916 10915 10915 10915 10915 10915 10915 10915 10916 10917 10918 10919 10920 10921 10923 10925 10926 10928 10929 10930 10931 10932 10934 10936 10938 10940 10942 10945 10948 10951 10953 10957 10960 10963 10966 10969 10972 10974 10977 10980 10983 10986 10989 10991 10993 10995 10997 11000 11002 11004 11007 11009 11010 11011 11012 11013 11014 11014 11014 11015 11015 11015 11016 11016 11016 11015 11015 11014 11013 11012 11011 11010 11008 11006 11004 11002 11000 10997 10994
10923 10922 10921 10920 10918 10917 10916 10914 10913 10913 10912 10911 10911 10911 10911 10911 10912 10912 10913 10914 10915 10916 10918 10919 10921 10923 10925 10926 10927 10929 10930 10931 10933 10934 10936 10938 10941 10943 10946 10949 10952 10956 10959 10962 10965 10968 10970 10973 10976 10980 10983 10986 10988 10990 10993 10995 10998 11000 11003 11005 11007 11009 11011 11012 11012 11012 11013 11014 11014 11015 11015 11016 11016 11016 11016 11016 11015 11014 11014 11012 11011 11010 11008 11006 11004 11002 11000 10997
10921 10920 10918 10917 10915 10914 10912 10911 10910 10909 10909 10908 10908 10907 10908 10908 10908 10908 10909 10910 10911 10912 10914 10915 10917 10919 10920 10922 10924 10926 10927 10929 10930 10931 10933 10935 10937 10939 10942 10945 10948 10951 10954 10957 10960 10963 10966 10970 10973 10977 10980 10983 10985 10988 10991 10993 10995 10998 11001 11004 11006 11008 11010 11011 11010 11010 11012 11013 11014 11014 11015 11016 11016 11017 11016 11016 11016 11015 11015 11014 11013 11011 11010 11008 11006 11004 11002 10999
10918 10916 10915 10913 10912 10910 10909 10907 10907 10906 10905 10905 10904 10904 10904 10904 10904 10904 10905 10906 10907 10908 10909 10911 10912 10914 10916 10918 10921 10922 10923 10925 10927 10928 10930 10931 10933 10936 10939 10941 10944 10947 10951 10953 10954 10958 10962 10966 10970 10973 10976 10979 10982 10986 10989 10991 10994 10997 11000 11002 11005 11007 11009 11009 11008 11009 11010 11012 11013 11014 11015 11015 11016 11017 11016 11016 11016 11016 11016 11015 11014 11013 11012 11010 11008 11006 11004 11002
10914 10913 10912 10910 10909 10907 10906 10904 10903 10902 10901 10901 10901 10900 10900 10900 10900 10900 10901 10902 10902 10904 10905 10907 10908 10910 10912 10914 10916 10917 10920 10922 10924 10925 10927 10928 10930 10932 10935 10938 10940 10943 10946 10948 10949 10953 10959 10962 10966 10969 10972 10975 10979 10983 10987 10990 10993 10996 10999 11001 11003 11005 11007 11008 11007 11007 11009 11011 11012 11013 11014 11015 11016 11017 11017 11016 11017 11016 11016 11016 11016 11015 11013 11012 11010 11009 11007 11004
10911 10910 10908 10907 10905 10904 10903 10901 10900 10899 10898 10897 10897 10897 10897 10896 10896 10897 10897 10898 10898 10900 10901 10902 10904 10906 10908 10909 10911 10913 10915 10918 10920 10922 10924 10925 10927 10929 10931 10934 10936 10939 10942 10943 10944 10949 10954 10958 10962 10965 10968 10972 10976 10980 10984 10988 10991 10994 10997 11000 11002 11004 11006 11007 11006 11007 11008 11010 11012 11013 11014 11015 11016 11017 11017 11017 11017 11017 11017 11017 11016 11016 11014 11013 11012 11011 11009 11007
10908 10906 10905 10903 10902 10900 10899 10898 10896 10895 10894 10893 10893 10893 10893 10893 10892 10893 10893 10893 10894 10895 10896 10898 10900 10901 10903 10905 10907 10909 10911 10913 10916 10918 10920 10922 10923 10925 10927 10929 10932 10935 10937 10938 10940 10945 10949 10953 10958 10960 10964 10968 10972 10977 10981 10985 10989 10992 10996 10999 11000 11002 11004 11005 11006 11006 11007 11009 11012 11013 11014 11014 11015 11016 11017 11017 11017 11017 11017 11017 11017 11017 11016 11015 11014 11013 11011 11009
10905 10903 10901 10900 10898 10897 10895 10894 10893 10891 10890 10889 10889 10889 10888 10888 10888 10889 10889 10889 10890 10891 10892 10893 10895 10897 10898 10900 10902 10904 10907 10909 10912 10914 10916 10918 10919 10921 10923 10926 10928 10930 10933 10934 10936 10939 10943 10949 10953 10956 10960 10964 10968 10973 10978 10982 10985 10988 10992 10994 10997 11000 11002 11004 11004 11005 11006 11008 11010 11011 11012 11013 11014 11015 11017 11017 11017 11017 11017 11017 11017 11017 11016 11015 11015 11014 11013 11011
10902 10900 10898 10897 10895 10893 10892 10890 10889 10888 10886 10886 10885 10884 10884 10884 10884 10884 10885 10885 10886 10886 10888 10889 10890 10892 10894 10896 10898 10900 10902 10904 10907 10909 10911 10913 10916 10918 10919 10921 10923 10925 10928 10930 10932 10934 10938 10944 10948 10953 10957 10961 10965 10970 10975 10978 10982 10985 10988 10991 10995 10999 11001 11002 11002 11003 11005 11007 11008 11010 11011 11012 11013 11014 11016 11017 11017 11017 11017 11017 11017 11018 11017 11016 11016 11015 11014 11013
10899 10897 10895 10893 10892 10890 10888 10887 10885 10884 10883 10882 10881 10880 10880 10880 10880 10880 10880 10881 10881 10882 10883 10884 10886 10887 10889 10890 10893 10895 10897 10899 10901 10904 10906 10909 10911 10913 10915 10917 10919 10921 10923 10926 10928 10930 10934 10939 10944 10948 10953 10957 10962 10967 10971 10974 10978 10982 10985 10989 10993 10997 10999 11001 11000 11001 11003 11005 11006 11008 11009 11010 11012 11013 11015 11016 11017 11017 11017 11017 11018 11018 11017 11017 11016 11016 11016 11014
10896 10894 10892 10890 10888 10887 10885 10883 10882 10880 10879 10878 10877 10876 10876 10876 10876 10876 10876 10876 10877 10878 10879 10880 10881 10883 10884 10885 10888 10890 10892 10894 10896 10899 10901 10904 10906 10909 10911 10913 10915 10917 10919 10921 10923 10925 10929 10933 10939 10944 10948 10953 10959 10963 10967 10969 10971 10976 10980 10985 10991 10994 10997 10998 10998 10999 11000 11003 11005 11006 11007 11008 11010 11011 11013 11015 11016 11016 11016 11017 11018 11018 11018 11017 11016 11017 11016 11015
10892 10890 10889 10887 10885 10884 10882 10880 10878 10877 10875 10874 10873 10872 10872 10871 10871 10872 10872 10872 10873 10873 10874 10876 10877 10878 10879 10880 10883 10885 10887 10889 10891 10893 10896 10898 10901 10903 10906 10908 10911 10913 10914 10916 10918 10920 10924 10928 10933 10939 10944 10949 10955 10958 10961 10963 10965 10970 10976 10982 10988 10990 10992 10994 10997 10998 10999 11002 11003 11004 11005 11006 11007 11009 11011 11014 11015 11016 11016 11017 11018 11018 11018 11017 11017 11017 11017 11016
10889 10887 10885 10884 10882 10880 10878 10876 10875 10873 10871 10870 10869 10868 10867 10867 10867 10867 10867 10868 10868 10869 10870 10871 10872 10873 10874 10875 10877 10879 10882 10883 10886 10888 10890 10893 10896 10898 10901 10903 10906 10908 10910 10911 10912 10914 10918 10923 10928 10934 10940 10945 10949 10951 10954 10957 10961 10967 10972 10979 10984 10986 10987 10992 10996 10996 10998 11000 11001 11002 11003 11004 11005 11006 11009 11012 11014 11015 11015 11016 11017 11018 11018 11018 11017 11017 11017 11017
10886 10884 10882 10881 10879 10877 10875 10873 10871 10870 10868 10866 10865 10864 10863 10863 10863 10863 10863 10863 10864 10865 10866 10867 10868 10869 10870 10871 10872 10874 10876 10878 10880 10883 10885 10888 10890 10893 10895 10898 10901 10903 10904 10905 10906 10909 10914 10918 10924 10929 10935 10940 10942 10944 10948 10952 10956 10963 10970 10976 10980 10982 10985 10991 10994 10994 10995 10998 10999 11000 11001 11001 11002 11004 11008 11011 11012 11013 11014 11015 11016 11017 11017 11018 11017 11017 11017 11017
10882 10881 10879 10877 10876 10874 10872 10870 10868 10866 10865 10863 10861 10860 10859 10859 10859 10859 10859 10859 10859 10860 10861 10862 10863 10864 10865 10866 10867 10869 10871 10873 10875 10877 10880 10882 10885 10887 10889 10892 10895 10897 10898 10900 10902 10906 10909 10914 10920 10924 10930 10933 10935 10938 10943 10947 10952 10959 10967 10972 10975 10978 10983 10989 10991 10991 10993 10995 10996 10997 10998 10998 11000 11003 11006 11008 11010 11012 11013 11014 11015 11016 11017 11017 11017 11017 11017 11017
10879 10877 10876 10874 10872 10871 10869 10867 10865 10863 10861 10859 10858 10856 10856 10856 10855 10855 10856 10855 10856 10856 10857 10858 10858 10859 10861 10862 10863 10864 10866 10868 10870 10872 10874 10876 10879 10881 10884 10887 10889 10891 10893 10895 10898 10901 10905 10910 10915 10918 10924 10927 10929 10933 10938 10942 10948 10954 10963 10967 10968 10972 10979 10984 10987 10988 10990 10992 10993 10994 10994 10995 10997 11001 11003 11005 11008 11010 11011 11012 11013 11015 11016 11017 11017 11017 11016 11017
10876 10874 10872 10871 10869 10867 10866 10864 10862 10860 10858 10856 10854 10852 10852 10852 10851 10852 10852 10852 10852 10852 10853 10853 10854 10855 10856 10857 10859 10860 10861 10863 10865 10867 10869 10871 10874 10876 10878 10881 10883 10885 10888 10890 10893 10896 10901 10906 10908 10911 10917 10921 10923 10927 10932 10938 10944 10950 10957 10960 10960 10965 10972 10975 10979 10984 10986 10989 10990 10990 10989 10992 10996 10998 11001 11003 11006 11008 11010 11011 11012 11013 11015 11016 11016 11016 11016 11016
10872 10870 10869 10867 10865 10864 10862 10861 10859 10857 10854 10852 10851 10849 10848 10848 10847 10848 10848 10848 10848 10848 10849 10849 10850 10851 10852 10853 10854 10856 10857 10859 10861 10863 10864 10867 10868 10870 10872 10875 10877 10880 10882 10885 10888 10892 10897 10899 10900 10905 10911 10915 10918 10922 10927 10934 10940 10946 10950 10953 10954 10960 10965 10969 10975 10980 10982 10985 10987 10987 10987 10991 10995 10997 10998 11001 11004 11006 11008 11009 11010 11011 11013 11015 11015 11016 11015 11016
10869 10867 10865 10864 10862 10860 10859 10857 10855 10853 10851 10849 10847 10846 10845 10844 10844 10844 10844 10844 10844 10844 10845 10845 10846 10846 10847 10849 10850 10852 10854 10855 10857 10858 10860 10862 10864 10865 10867 10869 10871 10873 10876 10880 10883 10887 10891 10892 10894 10899 10904 10909 10912 10916 10922 10928 10934 10938 10941 10945 10949 10954 10960 10964 10969 10975 10978 10980 10982 10983 10984 10988 10992 10994 10996 10998 11002 11004 11005 11007 11008 11010 11011 11013 11014 11015 11015 11015
10865 10863 10862 10860 10859 10857 10855 10853 10852 10850 10848 10846 10844 10843 10842 10841 10841 10840 10840 10840 10840 10841 10841 10842 10842 10843 10843 10845 10846 10848 10850 10851 10853 10854 10856 10857 10859 10861 10862 10864 10865 10867 10871 10874 10877 10881 10884 10885 10888 10892 10897 10902 10906 10911 10917 10922 10927 10930 10932 10938 10944 10948 10954 10958 10962 10968 10972 10973 10976 10978 10980 10984 10988 10991 10992 10995 10999 11001 11002 11004 11006 11008 11009 11011 11012 11014 11014 11014
10862 10860 10858 10856 10855 10853 10852 10850 10848 10846 10844 10842 10841 10840 10839 10838 10838 10837 10837 10837 10837 10837 10838 10838 10839 10839 10840 10841 10842 10844 10845 10847 10849 10850 10851 10853 10854 10856 10857 10859 10860 10862 10865 10867 10872 10875 10875 10878 10882 10886 10890 10895 10900 10905 10911 10916 10919 10922 10926 10933 10938 10942 10946 10951 10956 10961 10964 10966 10969 10972 10976 10982 10986 10988 10990 10993 10995 10998 11000 11002 11004 11006 11008 11009 11010 11012 11012 11013
10858 10856 10854 10853 10851 10849 10847 10846 10844 10842 10840 10838 10837 10836 10836 10835 10835 10834 10834 10834 10833 10834 10834 10835 10835 10836 10836 10837 10838 10840 10841 10843 10844 10846 10847 10848 10849 10850 10851 10853 10854 10856 10858 10861 10865 10866 10867 10872 10876 10879 10882 10887 10893 10899 10904 10908 10912 10915 10920 10926 10931 10934 10939 10944 10950 10955 10958 10961 10964 10968 10973 10979 10984 10986 10988 10990 10992 10995 10997 11000 11002 11004 11005 11007 11008 11009 11010 11011
10855 10852 10850 10849 10847 10845 10843 10842 10840 10838 10837 10835 10834 10833 10832 10831 10831 10831 10831 10831 10831 10831 10831 10831 10831 10832 10832 10833 10835 10836 10837 10838 10839 10841 10841 10842 10843 10844 10845 10846 10847 10849 10851 10853 10855 10856 10860 10865 10868 10870 10873 10879 10886 10891 10896 10902 10906 10910 10915 10920 10926 10930 10934 10939 10944 10948 10952 10956 10960 10964 10969 10976 10982 10983 10984 10986 10988 10991 10994 10997 10999 11001 11002 11004 11005 11006 11008 11009
10851 10849 10847 10845 10843 10841 10839 10837 10836 10834 10833 10832 10830 10830 10829 10828 10828 10828 10828 10828 10828 10827 10828 10828 10828 10829 10829 10830 10830 10831 10833 10834 10834 10835 10836 10836 10837 10837 10837 10838 10839 10841 10842 10844 10846 10848 10852 10856 10859 10861 10866 10873 10878 10883 10889 10895 10899 10904 10909 10916 10922 10926 10930 10934 10939 10943 10948 10951 10956 10960 10965 10972 10977 10977 10978 10981 10984 10987 10991 10993 10995 10997 10999 11001 11003 11004 11006 11007
10847 10845 10844 10841 10839 10837 10835 10833 10832 10831 10830 10828 10827 10826 10825 10824 10824 10824 10824 10824 10824 10824 10825 10825 10825 10825 10825 10826 10827 10827 10828 10829 10830 10830 10830 10830 10830 10830 10830 10830 10830 10831 10832 10835 10837 10838 10841 10846 10850 10853 10858 10865 10871 10876 10883 10888 10893 10898 10902 10909 10915 10919 10923 10927 10932 10938 10944 10948 10950 10955 10961 10966 10970 10971 10973 10976 10980 10983 10987 10989 10991 10994 10996 10998 11000 11002 11003 11004
10843 10842 10840 10838 10836 10834 10831 10830 10829 10827 10826 10825 10824 10823 10822 10821 10820 10821 10821 10821 10821 10821 10821 10821 10822 10822 10822 10822 10823 10823 10824 10825 10825 10825 10825 10825 10824 10824 10823 10823 10822 10821 10822 10824 10825 10827 10831 10835 10838 10841 10848 10856 10862 10869 10875 10879 10884 10888 10892 10900 10906 10909 10914 10920 10927 10934 10940 10942 10944 10950 10956 10960 10964 10967 10970 10973 10976 10980 10983 10985 10987 10990 10992 10995 10997 10999 11000 11001
10839 10838 10836 10834 10832 10830 10828 10826 10825 10824 10823 10822 10821 10820 10819 10818 10817 10817 10817 10817 10817 10818 10818 10818 10818 10818 10818 10819 10819 10819 10820 10820 10821 10821 10820 10820 10819 10818 10817 10816 10814 10813 10812 10812 10814 10816 10819 10822 10825 10831 10839 10846 10853 10859 10863 10867 10872 10877 10884 10891 10895 10899 10905 10911 10920 10928 10933 10936 10940 10946 10951 10955 10959 10962 10965 10969 10972 10976 10979 10981 10984 10986 10989 10992 10995 10997 10997 10998
10835 10834 10832 10831 10829 10826 10824 10823 10823 10821 10820 10819 10817 10816 10816 10815 10814 10813 10814 10814 10814 10814 10815 10815 10815 10815 10815 10815 10815 10815 10816 10816 10816 10816 10816 10815 10814 10813 10812 10809 10807 10805 10803 10801 10802 10804 10806 10810 10815 10820 10828 10835 10842 10847 10852 10859 10865 10871 10878 10883 10888 10893 10898 10903 10911 10919 10925 10930 10935 10940 10944 10949 10952 10955 10960 10964 10967 10972 10975 10977 10980 10982 10985 10988 10991 10993 10994 10995
10830 10829 10828 10827 10825 10823 10821 10820 10820 10818 10817 10816 10814 10813 10813 10812 10811 10810 10810 10810 10811 10811 10811 10811 10811 10811 10811 10812 10812 10812 10812 10812 10812 10812 10811 10811 10810 10808 10806 10803 10800 10797 10794 10791 10792 10792 10794 10799 10803 10808 10815 10823 10831 10838 10845 10852 10858 10864 10870 10876 10882 10887 10891 10898 10905 10912 10918 10923 10926 10931 10938 10944 10946 10949 10955 10958 10962 10967 10970 10973 10976 10978 10981 10984 10987 10989 10991 10993
10826 10825 10824 10823 10821 10819 10818 10817 10817 10816 10814 10813 10812 10811 10810 10809 10808 10807 10806 10806 10807 10807 10808 10808 10808 10808 10808 10808 10808 10808 10808 10808 10808 10808 10807 10806 10805 10803 10800 10797 10793 10790 10786 10783 10782 10782 10784 10787 10791 10796 10804 10812 10821 10829 10836 10843 10850 10857 10862 10867 10872 10878 10885 10893 10900 10907 10912 10913 10916 10923 10932 10939 10941 10944 10949 10952 10956 10961 10965 10968 10972 10974 10977 10979 10982 10986 10988 10989
10822 10821 10820 10819 10817 10816 10815 10814 10814 10813 10811 10810 10809 10808 10807 10806 10805 10804 10803 10803 10803 10804 10804 10804 10804 10804 10805 10805 10805 10805 10804 10804 10804 10804 10803 10802 10800 10798 10795 10791 10787 10783 10780 10776 10774 10774 10775 10776 10780 10786 10793 10801 10811 10819 10827 10835 10842 10848 10853 10858 10866 10874 10881 10887 10893 10900 10904 10904 10908 10916 10924 10930 10934 10936 10939 10944 10949 10955 10960 10963 10967 10970 10972 10975 10978 10981 10984 10986
10818 10817 10816 10815 10814 10812 10811 10811 10810 10810 10809 10807 10806 10805 10804 10803 10802 10801 10800 10800 10799 10800 10800 10801 10800 10800 10801 10801 10801 10801 10800 10800 10800 10799 10799 10797 10796 10794 10790 10786 10782 10777 10774 10770 10767 10767 10766 10767 10772 10778 10784 10792 10802 10811 10820 10827 10833 10838 10844 10851 10859 10867 10874 10880 10886 10891 10894 10897 10902 10907 10915 10922 10925 10927 10931 10938 10944 10950 10954 10957 10961 10964 10967 10970 10973 10976 10979 10981
10813 10813 10812 10811 10810 10809 10808 10807 10807 10807 10806 10805 10804 10803 10802 10801 10800 10799 10797 10797 10796 10796 10796 10797 10796 10796 10797 10797 10797 10797 10796 10796 10795 10795 10794 10793 10792 10790 10786 10782 10777 10773 10769 10765 10763 10761 10760 10761 10766 10771 10776 10785 10794 10803 10810 10817 10824 10831 10836 10843 10849 10858 10866 10872 10878 10882 10885 10889 10891 10897 10906 10913 10915 10919 10925 10932 10938 10943 10948 10951 10954 10958 10962 10965 10968 10971 10974 10976
10809 10808 10808 10807 10806 10805 10804 10804 10803 10803 10803 10802 10801 10800 10799 10798 10797 10796 10795 10794 10793 10792 10792 10792 10792 10792 10793 10793 10793 10793 10793 10792 10791 10790 10790 10789 10787 10785 10783 10779 10774 10769 10765 10761 10759 10757 10756 10757 10760 10764 10769 10775 10782 10789 10797 10805 10813 10820 10826 10834 10841 10849 10858 10865 10871 10875 10877 10879 10881 10887 10896 10900 10904 10910 10917 10924 10931 10936 10940 10944 10947 10952 10957 10960 10963 10966 10970 10972
10805 10804 10804 10804 10803 10802 10801 10800 10799 10799 10799 10799 10798 10797 10796 10796 10795 10793 10792 10791 10790 10789 10789 10788 10788 10788 10788 10789 10789 10789 10789 10788 10787 10786 10786 10785 10783 10782 10779 10775 10771 10766 10761 10758 10755 10753 10752 10753 10754 10757 10761 10764 10769 10777 10787 10796 10803 10809 10816 10825 10834 10841 10849 10856 10862 10865 10867 10870 10874 10880 10887 10890 10895 10902 10909 10916 10924 10929 10933 10937 10941 10946 10951 10955 10958 10961 10965 10968
10800 10800 10800 10800 10799 10798 10797 10796 10795 10795 10795 10795 10794 10793 10793 10793 10792 10791 10790 10788 10787 10786 10786 10785 10784 10784 10784 10785 10785 10785 10785 10785 10784 10783 10782 10781 10780 10778 10776 10772 10768 10764 10759 10755 10752 10750 10749 10749 10751 10753 10755 10758 10764 10772 10782 10790 10796 10802 10810 10819 10826 10832 10839 10846 10852 10855 10858 10863 10868 10874 10880 10884 10889 10896 10903 10909 10916 10921 10926 10930 10935 10940 10945 10949 10953 10956 10959 10963
10796 10796 10795 10795 10795 10794 10793 10792 10791 10791 10790 10790 10790 10789 10789 10789 10788 10788 10787 10786 10784 10784 10783 10782 10781 10780 10780 10781 10781 10781 10781 10781 10780 10779 10778 10777 10776 10774 10772 10770 10766 10762 10758 10753 10750 10748 10747 10747 10748 10750 10751 10754 10760 10768 10776 10785 10791 10798 10805 10812 10816 10821 10830 10837 10843 10847 10852 10857 10861 10867 10874 10877 10882 10891 10898 10903 10909 10913 10918 10924 10928 10933 10937 10942 10946 10950 10953 10958
10791 10790 10790 10790 10790 10789 10788 10787 10786 10786 10785 10785 10785 10785 10784 10784 10784 10784 10783 10782 10781 10781 10780 10779 10778 10777 10777 10777 10777 10777 10777 10777 10777 10775 10774 10773 10772 10771 10769 10767 10764 10760 10757 10752 10749 10746 10745 10745 10746 10747 10748 10750 10755 10761 10769 10777 10785 10792 10799 10804 10807 10812 10822 10830 10835 10840 10845 10850 10854 10860 10866 10868 10874 10884 10891 10895 10901 10906 10911 10917 10922 10926 10930 10935 10940 10944 10947 10952
10786 10785 10785 10784 10785 10784 10783 10782 10781 10781 10780 10780 10780 10780 10779 10779 10779 10779 10779 10779 10778 10777 10777 10776 10775 10774 10773 10773 10773 10774 10774 10773 10773 10772 10771 10770 10769 10767 10766 10764 10762 10759 10755 10752 10748 10745 10743 10743 10744 10744 10746 10747 10750 10755 10760 10768 10778 10785 10790 10795 10800 10806 10813 10821 10827 10833 10840 10845 10848 10854 10859 10861 10866 10877 10883 10887 10892 10897 10903 10910 10914 10919 10924 10928 10933 10937 10941 10945
10781 10780 10779 10779 10779 10779 10778 10777 10776 10775 10775 10775 10775 10774 10774 10774 10774 10774 10775 10775 10774 10773 10773 10773 10772 10771 10770 10770 10770 10770 10770 10769 10769 10768 10767 10766 10765 10764 10762 10761 10759 10757 10754 10751 10747 10744 10742 10742 10742 10743 10744 10746 10748 10752 10755 10762 10771 10778 10781 10786 10793 10798 10805 10812 10817 10824 10831 10838 10842 10847 10851 10854 10860 10871 10877 10880 10884 10890 10896 10902 10906 10912 10918 10922 10925 10930 10935 10939
10776 10776 10774 10773 10773 10774 10773 10772 10771 10771 10770 10770 10770 10769 10769 10769 10769 10769 10770 10770 10770 10769 10769 10769 10769 10768 10767 10766 10766 10766 10766 10765 10765 10764 10764 10763 10762 10761 10759 10758 10757 10755 10752 10750 10747 10744 10741 10740 10741 10741 10742 10743 10746 10749 10752 10757 10763 10769 10773 10779 10785 10791 10799 10805 10810 10815 10822 10829 10834 10838 10841 10846 10855 10865 10871 10874 10877 10883 10889 10894 10898 10905 10911 10915 10919 10923 10928 10932
10771 10771 10770 10769 10768 10769 10769 10768 10767 10766 10766 10766 10765 10765 10765 10765 10764 10764 10765 10766 10766 10765 10764 10764 10764 10764 10764 10763 10762 10762 10761 10761 10761 10761 10761 10760 10759 10758 10756 10755 10754 10753 10751 10748 10746 10743 10741 10739 10739 10739 10739 10740 10741 10744 10747 10752 10756 10760 10765 10771 10778 10784 10792 10798 10803 10809 10816 10821 10825 10828 10832 10840 10849 10858 10863 10867 10871 10877 10882 10886 10891 10897 10903 10909 10914 10917 10921 10925
10765 10765 10765 10764 10763 10764 10764 10764 10763 10762 10761 10761 10761 10761 10760 10760 10760 10759 10760 10761 10761 10761 10760 10760 10760 10760 10760 10759 10759 10758 10758 10757 10757 10757 10757 10756 10755 10754 10753 10752 10751 10750 10748 10747 10744 10742 10740 10738 10737 10737 10737 10737 10738 10740 10742 10745 10750 10755 10760 10766 10772 10778 10784 10790 10796 10802 10809 10814 10817 10821 10827 10835 10843 10849 10855 10860 10865 10871 10875 10879 10884 10890 10896 10902 10908 10911 10914 10918
10760 10760 10760 10760 10759 10758 10759 10759 10758 10757 10757 10757 10757 10756 10756 10756 10756 10755 10755 10756 10757 10757 10756 10756 10755 10756 10756 10756 10755 10755 10754 10754 10754 10754 10753 10753 10752 10751 10750 10749 10748 10747 10746 10745 10743 10741 10739 10737 10735 10734 10733 10734 10735 10736 10738 10740 10744 10749 10756 10762 10766 10770 10776 10782 10788 10795 10801 10807 10810 10815 10821 10829 10836 10842 10848 10854 10860 10864 10868 10871 10877 10883 10889 10895 10901 10905 10908 10911
10755 10754 10754 10755 10754 10754 10753 10753 10753 10753 10752 10752 10752 10752 10751 10751 10751 10751 10751 10751 10752 10752 10752 10752 10751 10751 10752 10752 10751 10751 10751 10750 10750 10751 10750 10749 10749 10748 10748 10746 10745 10744 10743 10742 10741 10739 10737 10736 10734 10732 10731 10730 10731 10732 10734 10737 10740 10747 10754 10758 10761 10764 10768 10774 10780 10787 10793 10799 10804 10809 10816 10824 10829 10835 10840 10847 10853 10857 10860 10864 10870 10876 10881 10887 10893 10899 10902 10904